Macomb, IL

12:03 AM CDT on March 28, 2017 (GMT -0500)
Macomb Municipal

Weather History for KMQB - March, 2012

Change the Weather History Date:

Friday, March 2, 2012

  Actual Average (KBRL) Record (KBRL)
Temperature  
Mean Temperature 38 °F -  
Max Temperature 41 °F 47 °F 73 °F (1992)
Min Temperature 34 °F 30 °F -4 °F (1913)
Degree Days  
Heating Degree Days 28    
Moisture  
Dew Point 35 °F    
Average Humidity 92    
Maximum Humidity 100    
Minimum Humidity 82    
Precipitation  
Precipitation 0.00 in - - ()
Sea Level Pressure  
Sea Level Pressure 29.55 in    
Wind  
Wind Speed 13 mph (North)    
Max Wind Speed 24 mph    
Max Gust Speed 33 mph    
Visibility 6 miles    
Events Rain , Snow    
Averages and records for this station are not official NWS values.
T = Trace of Precipitation, MM = Missing Value Source: NWS Daily Summary

Daily Weather History Graph

Daily Weather History Graph

Search for Another Location

Airport or City:

Trip Planner

Search our weather history database for the weather conditions in past years. The results will help you decide how hot, cold, wet, or windy it might be!

Date:

Astronomy

Mar. 02, 2012 Rise Set
Actual Time 6:34 AM CST 5:55 PM CST
Civil Twilight 6:06 AM CST 6:23 PM CST
Nautical Twilight 5:35 AM CST 6:54 PM CST
Astronomical Twilight 5:03 AM CST 7:26 PM CST
Moon 12:07 PM CST (3/2) 2:25 AM CST (3/2)
Length of Visible Light 12h 16m
Length of Day
11h 21m
Waxing Gibbous, 66% of the Moon is Illuminated
Mar 2
Waxing Gibbous
Mar 8
Full
Mar 14
Last Quarter
Mar 22
New
Mar 30
First Quarter

Hourly Weather History & Observations

Time (CST) Temp. Windchill Dew Point Humidity Pressure Visibility Wind Dir Wind Speed Gust Speed Precip Events Conditions
12:15 AM 37.9 °F 30.5 °F 34.3 °F 87% 29.62 in 10.0 mi NE 11.5 mph - N/A   Clear
12:35 AM 37.6 °F 30.0 °F 34.0 °F 87% 29.61 in 10.0 mi NE 11.5 mph - N/A   Clear
12:55 AM 37.4 °F 30.8 °F 34.0 °F 87% 29.60 in 7.0 mi NE 9.2 mph - N/A   Clear
1:15 AM 37.4 °F 30.3 °F 33.8 °F 87% 29.60 in 10.0 mi NE 10.4 mph - N/A   Clear
1:35 AM 37.0 °F 28.9 °F 33.4 °F 87% 29.59 in 7.0 mi ENE 12.7 mph - N/A   Clear
1:55 AM 36.9 °F 28.2 °F 33.3 °F 87% 29.58 in 7.0 mi NE 13.8 mph - N/A   Clear
2:15 AM 36.5 °F 28.2 °F 33.3 °F 88% 29.57 in 7.0 mi ENE 12.7 mph - N/A   Clear
2:35 AM 36.1 °F 28.2 °F 33.3 °F 89% 29.56 in - NE 11.5 mph - N/A   Unknown
2:55 AM 35.4 °F 29.0 °F 32.9 °F 91% 29.58 in 7.0 mi NE 8.1 mph - N/A   Clear
3:15 AM 34.7 °F 27.5 °F 32.5 °F 92% 29.56 in 7.0 mi NNE 9.2 mph - N/A   Clear
3:35 AM 34.9 °F 26.2 °F 32.7 °F 92% 29.54 in 7.0 mi NE 12.7 mph - N/A   Clear
3:55 AM 34.9 °F 25.7 °F 32.7 °F 92% 29.53 in 7.0 mi NE 13.8 mph - N/A   Clear
4:15 AM 34.9 °F 25.7 °F 32.9 °F 92% 29.50 in 7.0 mi NE 13.8 mph - N/A   Clear
4:35 AM 35.1 °F 26.9 °F 32.9 °F 92% 29.52 in 7.0 mi NE 11.5 mph - N/A   Clear
4:55 AM 35.6 °F 28.0 °F 33.3 °F 91% 29.51 in 7.0 mi NE 10.4 mph - N/A   Clear
5:15 AM 35.8 °F 29.4 °F 33.4 °F 91% 29.53 in 7.0 mi NE 8.1 mph - N/A   Scattered Clouds
5:35 AM 36.0 °F 32.1 °F 33.8 °F 92% 29.55 in 7.0 mi NNE 4.6 mph - N/A   Mostly Cloudy
5:55 AM 36.3 °F 32.5 °F 33.8 °F 91% 29.55 in 7.0 mi NE 4.6 mph - N/A   Overcast
6:15 AM 36.1 °F 30.6 °F 33.8 °F 91% 29.53 in 7.0 mi NE 6.9 mph - N/A   Mostly Cloudy
6:35 AM 36.5 °F 30.3 °F 33.8 °F 90% 29.51 in 7.0 mi NNE 8.1 mph - N/A   Mostly Cloudy
6:55 AM 36.5 °F 28.7 °F 33.8 °F 90% 29.49 in 5.0 mi NNE 11.5 mph - N/A   Overcast
7:15 AM 36.7 °F 30.5 °F 34.0 °F 90% 29.51 in 5.0 mi NE 8.1 mph - N/A   Overcast
7:35 AM 37.2 °F 34.7 °F 34.2 °F 89% 29.55 in 5.0 mi NNE 3.5 mph - N/A   Overcast
7:55 AM 37.4 °F 32.8 °F 34.7 °F 90% 29.51 in 4.0 mi North 5.8 mph - N/A Rain Light Rain
8:15 AM 37.4 °F 30.8 °F 35.1 °F 91% 29.49 in 5.0 mi NNE 9.2 mph - N/A   Mostly Cloudy
8:35 AM 37.4 °F 28.5 °F 35.6 °F 93% 29.47 in 5.0 mi NNE 15.0 mph - N/A   Scattered Clouds
8:55 AM 38.3 °F 29.7 °F 35.6 °F 90% 29.45 in 5.0 mi North 15.0 mph 18.4 mph N/A   Scattered Clouds
9:15 AM 38.3 °F 29.3 °F 35.4 °F 89% 29.44 in 5.0 mi North 16.1 mph - N/A   Scattered Clouds
9:35 AM 39.2 °F 31.2 °F 35.6 °F 87% 29.45 in 5.0 mi North 13.8 mph - N/A   Mostly Cloudy
9:55 AM 40.5 °F 32.5 °F 36.1 °F 85% 29.43 in 5.0 mi North 15.0 mph - N/A   Haze
10:15 AM 41.0 °F 32.5 °F 36.1 °F 83% 29.43 in 5.0 mi North 17.3 mph - N/A   Haze
10:35 AM 41.4 °F 33.6 °F 36.1 °F 82% 29.43 in 7.0 mi NNW 15.0 mph 20.7 mph N/A   Overcast
10:55 AM 41.4 °F 33.6 °F 36.1 °F 82% 29.41 in 5.0 mi North 15.0 mph 20.7 mph N/A   Haze
11:15 AM 40.8 °F 32.0 °F 35.6 °F 82% 29.42 in 5.0 mi NNW 18.4 mph - N/A   Haze
11:35 AM 40.5 °F 32.1 °F 35.6 °F 83% 29.43 in 5.0 mi NNW 16.1 mph 24.2 mph N/A   Haze
11:55 AM 39.7 °F 30.3 °F 35.8 °F 86% 29.44 in 4.0 mi NNW 19.6 mph 25.3 mph N/A Rain Light Rain
12:15 PM 36.9 °F 26.8 °F 36.3 °F 98% 29.46 in 2.5 mi NW 18.4 mph 24.2 mph N/A Rain Light Rain
12:35 PM 35.6 °F 25.9 °F 35.2 °F 99% 29.48 in 2.5 mi NW 16.1 mph 26.5 mph N/A Rain Light Rain
12:55 PM 34.3 °F 24.6 °F 34.2 °F 99% 29.49 in 1.0 mi NW 15.0 mph - N/A Snow Light Snow
1:15 PM 34.3 °F 24.2 °F 34.3 °F 100% 29.50 in 1.0 mi WNW 16.1 mph - N/A Snow Light Snow
1:35 PM 34.7 °F 23.4 °F 34.7 °F 100% 29.51 in 2.5 mi NW 20.7 mph 26.5 mph N/A Snow Light Snow
1:55 PM 34.9 °F 23.6 °F 34.9 °F 100% 29.52 in 7.0 mi NW 20.7 mph 27.6 mph N/A Rain Light Rain
2:15 PM 35.4 °F 23.7 °F 35.4 °F 100% 29.55 in 7.0 mi NW 23.0 mph 29.9 mph N/A   Overcast
2:35 PM 35.2 °F 24.1 °F 35.2 °F 100% 29.56 in 10.0 mi NW 20.7 mph 28.8 mph N/A Rain Light Rain
2:55 PM 35.6 °F 24.8 °F 35.6 °F 100% 29.58 in 7.0 mi NW 19.6 mph 27.6 mph N/A Rain Light Rain
3:15 PM 35.8 °F 23.9 °F 35.8 °F 100% 29.61 in 7.0 mi NW 24.2 mph 33.4 mph N/A Rain Light Rain
3:35 PM 35.8 °F 24.2 °F 35.8 °F 100% 29.63 in 7.0 mi NW 23.0 mph 31.1 mph N/A Rain Light Rain
3:55 PM 35.6 °F 23.7 °F 35.6 °F 100% 29.65 in 7.0 mi NW 24.2 mph 29.9 mph N/A Rain Light Rain
4:15 PM 35.8 °F 24.2 °F 35.8 °F 100% 29.67 in 10.0 mi NW 23.0 mph 26.5 mph N/A Rain Light Rain
4:35 PM 35.6 °F 24.0 °F 35.6 °F 100% 29.70 in 10.0 mi NW 23.0 mph 29.9 mph N/A Rain Light Rain
4:55 PM 36.5 °F 25.7 °F 36.5 °F 100% 29.70 in 10.0 mi NW 20.7 mph 26.5 mph N/A   Overcast
5:15 PM 36.3 °F 26.1 °F 36.3 °F 100% 29.71 in 10.0 mi WNW 18.4 mph 23.0 mph N/A   Overcast
5:35 PM 35.6 °F 24.8 °F 35.6 °F 100% 29.72 in 10.0 mi WNW 19.6 mph - N/A   Mostly Cloudy
5:55 PM 35.6 °F 26.2 °F 35.6 °F 100% 29.73 in 10.0 mi West 15.0 mph - N/A   Scattered Clouds
6:15 PM 35.1 °F 27.4 °F 35.1 °F 100% 29.74 in 10.0 mi West 10.4 mph - N/A   Clear
6:35 PM 35.2 °F 26.6 °F 35.2 °F 100% 29.75 in 10.0 mi West 12.7 mph - N/A   Scattered Clouds
6:55 PM 34.9 °F 25.7 °F 34.9 °F 100% 29.76 in 10.0 mi West 13.8 mph - N/A   Clear
7:15 PM 35.6 °F 26.2 °F 35.6 °F 100% 29.77 in 10.0 mi West 15.0 mph - N/A   Clear
7:35 PM 35.6 °F 25.9 °F 35.6 °F 100% 29.77 in 10.0 mi West 16.1 mph - N/A   Clear
7:55 PM 36.1 °F 27.3 °F 36.1 °F 100% 29.77 in 10.0 mi West 13.8 mph - N/A   Clear
8:15 PM 36.5 °F 27.8 °F 36.5 °F 100% 29.77 in 10.0 mi WSW 13.8 mph - N/A   Clear
8:35 PM 36.5 °F 27.8 °F 34.3 °F 92% 29.77 in 10.0 mi West 13.8 mph - N/A   Clear
8:55 PM 35.8 °F 27.3 °F 33.8 °F 92% 29.78 in 10.0 mi West 12.7 mph - N/A   Clear
9:15 PM 35.1 °F 25.5 °F 33.3 °F 93% 29.78 in 10.0 mi WNW 15.0 mph - N/A   Clear
9:35 PM 35.4 °F 25.6 °F 32.7 °F 90% 29.79 in 10.0 mi WNW 16.1 mph 19.6 mph N/A   Clear
9:55 PM 35.8 °F 25.1 °F 30.9 °F 82% 29.80 in 10.0 mi WNW 19.6 mph 24.2 mph N/A   Clear
10:15 PM 35.2 °F 25.0 °F 28.9 °F 78% 29.80 in 10.0 mi WNW 17.3 mph - N/A   Scattered Clouds
10:35 PM 34.9 °F 24.9 °F 29.8 °F 82% 29.80 in 10.0 mi WNW 16.1 mph - N/A   Mostly Cloudy
10:55 PM 34.5 °F 23.4 °F 28.9 °F 80% 29.80 in 10.0 mi West 19.6 mph 23.0 mph N/A   Mostly Cloudy
11:15 PM 34.0 °F 23.4 °F 27.5 °F 77% 29.79 in 10.0 mi WNW 17.3 mph 23.0 mph N/A   Scattered Clouds
11:35 PM 33.6 °F 23.3 °F 27.1 °F 77% 29.80 in 10.0 mi West 16.1 mph 24.2 mph N/A   Clear
11:55 PM 33.1 °F 23.9 °F 27.5 °F 80% 29.79 in 10.0 mi West 12.7 mph - N/A   Clear